Location: Ila Odo
(8.0667°N, 4.7000°E)
Time: 07:34:21
(UTC+00:00)

Daily predictions for brighter satellites

Satellite Brightness Start Highest point End
(mag) Time Altitude Azimuth Time Altitude Azimuth Time Altitude Azimuth
ARIANE 5 DEB (SYLDA) 4.3 17:38:18 10° WSW 17:43:59 33° S 17:48:40 10° ESE
Cosmos 1461 2.9 17:40:29 10° SSW 17:44:28 80° WNW 17:48:23 10° NNE
NOSS 2-1 (C) 3.7 17:42:43 10° S 17:47:14 50° ESE 17:50:50 10° NE
Cosmos 1782 Rocket 3.7 17:43:28 10° N 17:47:41 53° E 17:51:54 10° SSE
NOSS 2-1 (D) 3.5 17:46:19 10° SSW 17:50:53 58° ESE 17:54:31 10° NE
Atlas Centaur 2 3.1 17:44:55 10° NW 17:52:26 63° NNE 18:00:52 10° ESE
YAOGAN 6 3.0 17:52:15 10° SSE 17:55:30 37° ENE 17:58:47 10° N
Cosmos 1666 4.1 17:53:28 10° NNW 17:56:59 41° W 18:00:31 10° SSW
Okean 2 Rocket 4.1 17:55:50 10° NNE 17:59:37 27° E 18:03:25 10° SE
Cosmos 1943 3.6 17:55:22 10° SSW 18:00:59 69° WNW 18:06:36 10° N
Sich 1 Rocket 3.6 17:58:48 10° N 18:03:07 61° E 18:07:27 10° SSE
Cosmos 1655 Rocket 4.3 17:59:41 10° S 18:06:03 77° W 18:12:21 10° N
Cosmos 292 Rocket 4.1 18:03:53 10° NNW 18:08:41 71° WSW 18:13:27 10° S
Cosmos 1674 Rocket 3.5 18:07:26 10° S 18:11:51 65° E 18:16:14 10° NNE
CZ-3B R/B 3.5 18:09:23 10° NW 18:12:21 16° N 18:16:16 10° NNE
Okean-O 3.5 18:12:14 10° S 18:16:33 54° WSW 18:20:52 10° NNW
YAOGAN 1 2.8 18:16:55 10° SSE 18:21:03 46° ENE 18:25:10 10° N
FengYun 1-2 T 4.1 18:15:36 10° SSE 18:21:05 82° ENE 18:26:33 10° N
Centaur D-1AR AC-36 3.9 18:01:42 10° W 18:21:52 33° NNW 18:25:56 15° NE
Orbus 7S 2.7 18:19:39 10° WSW 18:23:41 75° SSE 18:24:45 32° ENE
ISS -3.9 18:20:34 10° NNW 18:23:54 69° NE 18:27:14 10° SE
FALCON 9 DEB 4.3 18:23:41 10° SSE 18:24:41 15° SE 18:24:41 15° SE
Starlink Launch 2 leader 4.4 18:23:51 10° S 18:25:07 16° SE 18:25:07 16° SE
GPS 2-18 Rocket1 3.0 18:21:57 10° WNW 18:25:53 89° SSW 18:28:24 21° ESE
GPS 2-17 Rocket1 3.3 18:24:14 10° WSW 18:28:38 56° SSE 18:30:52 26° E
Cosmos 1544 4.0 18:29:15 28° E 18:29:15 28° E 18:32:10 10° SE
Cosmos 1378 Rocket 3.4 18:24:50 10° S 18:29:07 75° E 18:33:23 10° N
Starlink Launch 2 trailer 4.2 18:27:20 10° S 18:28:40 18° SE 18:28:40 18° SE
Cosmos 1743 4.2 18:28:15 10° NNW 18:31:52 39° W 18:35:30 10° SSW
CZ-4 R/B 1.7 18:34:02 10° S 18:37:59 64° W 18:41:51 10° NNW
Cosmos 1300 Rocket 3.4 18:36:09 10° N 18:40:25 65° E 18:44:42 10° SSE
CSL-04 Rocket 3.6 18:45:10 10° S 18:50:28 84° WSW 18:55:44 10° NNW
IUS-18 SRM-1 2.6 18:48:33 10° W 18:50:30 34° SW 18:50:30 34° SW
Cosmos 1066 Rocket 4.2 18:46:57 10° S 18:52:46 72° E 18:56:16 25° NNE
ATLAS 3B CENTAUR R/B 3.6 18:47:29 10° W 18:53:31 56° NNW 19:00:29 28° NE
ADEOS Rocket 2.9 18:52:05 15° N 18:56:49 80° WNW 19:02:50 10° SSW
FUSE 3.9 18:51:46 10° NW 18:57:04 60° NNE 18:57:54 53° ENE
S3M 4.4 18:56:30 10° NNW 19:02:30 61° W 19:08:30 10° S
Cosmos 405 Rocket 3.4 19:00:58 19° NNW 19:03:28 52° W 19:07:11 10° S
H-2A ROCKET BODY 2.9 18:58:01 10° WSW 19:06:19 32° NW 19:07:14 29° NNW
USA 267 3.4 19:07:37 47° NE 19:07:38 47° NE 19:13:49 10° NNW
Aureole 3 Rocket 4.5 19:04:44 10° NNW 19:07:58 34° W 19:12:08 10° SSW
Cosmos 2151 Rocket 4.4 19:06:24 10° NNW 19:10:38 50° W 19:14:53 10° SSW
Centaur D-1A AC-31 4.1 19:08:41 10° NNW 19:14:52 33° NE 19:53:58 10° E
Centaur D-1A AC-31 4.1 19:08:42 10° NNW 19:14:52 33° NE 19:53:58 10° E
Ariane H10-3 4.3 19:14:07 10° W 19:18:53 85° S 19:27:01 34° E
ARIANE 5 DEB (SYLDA) 4.4 19:13:04 10° WSW 19:20:16 58° S 19:21:57 47° SE
Iridium 4 Rocket 4.0 19:19:28 10° S 19:24:09 55° SSE 19:24:09 55° SSE
IRS-1A Rocket 4.4 19:26:06 10° SSE 19:31:00 67° S 19:31:00 67° S
Atlas Centaur 2 3.9 19:34:36 10° WNW 19:42:23 45° SSW 19:48:12 19° SSE
Ariane Rocket 3.9 19:38:41 10° S 19:42:42 45° SW 19:42:42 45° SW
Cosmos 2315 Rocket 4.5 19:46:12 49° NW 19:47:24 57° W 19:53:28 10° S
Ariane H10+ 4.0 20:22:35 10° W 21:01:23 14° E 21:18:55 10° E
Ariane H10+ 4.0 20:22:36 10° W 21:01:23 14° E 21:18:55 10° E
ATLAS 5 CENTAUR R/B 4.0 20:20:40 10° W 20:28:14 64° SSW 21:11:50 10° ESE
